Location: Newark
(31.5350°N, 35.0986°E)
Time: 04:48:32
(UTC+00:00)

Vanguard 3 - All Passes

Search period start: 16 September 2019 00:00
Search period end: 26 September 2019 00:00
Orbit: 508 x 3263 km, 33.4° (Epoch: 14 September)

Date Brightness Start Highest point End Pass type
(mag) Time Alt. Az. Time Alt. Az. Time Alt. Az.
16 Sep - 03:02:43 10° S 03:11:45 20° SE 03:22:58 10° E visible
16 Sep - 05:10:01 10° SW 05:25:12 55° SE 05:44:18 10° ENE daylight
16 Sep - 07:23:06 10° WSW 07:41:58 87° SSE 08:00:50 10° ENE daylight
16 Sep - 09:39:47 10° W 10:00:14 85° N 10:15:33 10° E daylight
16 Sep - 11:58:06 10° WNW 12:16:42 71° SSW 12:28:06 10° SE daylight
16 Sep - 14:17:51 10° W 14:29:21 28° SW 14:36:59 10° S daylight
17 Sep - 03:56:53 10° SSW 04:09:23 38° SE 04:26:14 10° ENE daylight
17 Sep - 06:07:41 10° WSW 06:24:30 75° SSE 06:44:22 10° ENE daylight
17 Sep - 08:22:40 10° W 08:42:31 85° N 09:00:10 10° E daylight
17 Sep - 10:40:11 10° WNW 11:00:21 86° SSW 11:14:06 10° ESE daylight
17 Sep - 12:58:55 10° WNW 13:15:03 47° SW 13:25:04 10° SSE daylight
17 Sep - 15:24:30 10° WSW 15:26:06 10° SW 15:27:36 10° SW daylight
18 Sep - 02:45:28 10° S 02:54:32 22° SE 03:06:23 10° E visible
18 Sep - 04:53:22 10° SW 05:07:46 60° SSE 05:27:10 10° ENE daylight
18 Sep - 07:06:25 10° WSW 07:24:38 90° SSE 07:44:06 10° E daylight
18 Sep - 09:22:43 10° W 09:43:05 86° N 09:59:17 10° E daylight
18 Sep - 11:40:40 10° WNW 11:59:42 67° SSW 12:11:58 10° SE daylight
18 Sep - 14:00:49 10° W 14:12:25 25° SW 14:20:30 10° S daylight
19 Sep - 03:40:12 10° SSW 03:52:04 41° SE 04:09:03 10° ENE daylight
19 Sep - 05:51:09 10° WSW 06:07:08 79° SSE 06:27:20 10° ENE daylight
19 Sep - 08:05:53 10° W 08:25:14 84° N 08:43:39 10° E daylight
19 Sep - 10:22:56 10° WNW 10:43:14 82° SSW 10:57:53 10° ESE daylight
19 Sep - 12:41:32 10° WNW 12:58:01 44° SW 13:08:45 10° SSE daylight
20 Sep - 02:28:31 10° S 02:37:22 24° SE 02:49:33 10° E visible
20 Sep - 04:36:53 10° SW 04:50:28 64° SSE 05:09:56 10° ENE daylight
20 Sep - 06:49:52 10° WSW 07:07:19 88° N 07:27:16 10° E daylight
20 Sep - 09:05:45 10° W 09:25:52 88° N 09:42:54 10° ESE daylight
20 Sep - 11:23:18 10° WNW 11:42:32 63° SSW 11:55:41 10° SE daylight
20 Sep - 13:43:53 10° W 13:55:24 23° SW 14:03:47 10° S daylight
21 Sep - 03:23:41 10° SSW 03:34:51 45° SE 03:51:46 10° ENE daylight
21 Sep - 05:34:45 10° WSW 05:49:52 83° SSE 06:10:13 10° ENE daylight
21 Sep - 07:49:13 10° W 08:07:58 84° N 08:27:02 10° E daylight
21 Sep - 10:05:45 10° WNW 10:26:00 79° SSW 10:41:32 10° ESE daylight
21 Sep - 12:24:14 10° WNW 12:40:49 40° SW 12:52:16 10° SSE daylight
22 Sep - 02:11:49 10° S 02:20:18 27° SE 02:32:34 10° E visible
22 Sep - 04:20:34 10° SW 04:33:16 68° SSE 04:52:34 10° ENE daylight
22 Sep - 06:33:27 10° W 06:50:05 86° N 07:10:21 10° E daylight
22 Sep - 08:48:52 10° W 09:08:34 90° SSW 09:26:25 10° ESE daylight
22 Sep - 11:06:00 10° WNW 11:25:16 58° SSW 11:39:14 10° SE daylight
22 Sep - 13:27:06 10° W 13:38:17 21° SW 13:46:50 10° S daylight
23 Sep - 01:03:25 10° SE 01:06:32 12° SE 01:10:04 10° ESE visible
23 Sep - 03:07:21 10° SSW 03:17:46 49° SE 03:34:23 10° ENE daylight
23 Sep - 05:18:29 10° WSW 05:32:42 86° SSE 05:52:59 10° ENE daylight
23 Sep - 07:32:38 10° W 07:50:42 85° N 08:10:18 10° E daylight
23 Sep - 09:48:40 10° WNW 10:08:39 75° SSW 10:25:03 10° ESE daylight
23 Sep - 12:07:03 10° WNW 12:23:33 37° SW 12:35:36 10° SSE daylight
24 Sep - 01:55:18 10° S 02:03:20 29° SE 02:15:29 10° E visible
24 Sep - 04:04:23 10° SW 04:16:13 72° SSE 04:35:09 10° ENE daylight
24 Sep - 06:17:08 10° W 06:32:54 85° N 06:53:20 10° E daylight
24 Sep - 08:32:04 10° WNW 08:51:13 87° SSW 09:09:46 10° ESE daylight
24 Sep - 10:48:49 10° WNW 11:07:52 54° SW 11:22:37 10° SE daylight
24 Sep - 13:10:34 10° W 13:21:05 19° SW 13:29:34 10° SSW daylight
25 Sep - 00:45:52 10° SSE 00:49:43 13° SE 00:54:23 10° ESE visible
25 Sep - 02:51:09 10° SW 03:00:49 53° SE 03:16:58 10° ENE visible
25 Sep - 05:02:21 10° WSW 05:15:39 89° SSE 05:35:42 10° E daylight
25 Sep - 07:16:10 10° W 07:33:26 86° N 07:53:27 10° E daylight
25 Sep - 09:31:41 10° WNW 09:51:13 71° SSW 10:08:23 10° SE daylight
25 Sep - 11:50:00 10° W 12:06:10 34° SW 12:18:44 10° SSE daylight
